Flag for U.S.A. Weather past 2 weeks in Breckenridge, Colorado, U.S.A.

Now
36 °F

Clear.


Feels Like: 32 °F
Forecast: 32 / 63 °F
Wind: 5 mph from South

Location: Copper Mountain - Red Cliff Pass

Current Time: May 30, 2015 at 3:03:40 AM

Latest Report: May 30, 2015 at 2:35 AM


Visibility: 10 mi

Pressure: 30.51 "Hg

Humidity: 70%

Dew point: 27 °F

Location of BreckenridgeLocation

Historic Weather in Breckenridge — Graph

°F

Breckenridge temperature yesterday

Maximum temperature yesterday: 45 °F (at 3:15 PM)
Minimum temperature yesterday: 32 °F (at 3:55 AM)
Average temperature yesterday: 36 °F

Past Weeks' High & Low Weather Summary

 TemperatureHumidityPressure
High46 °F (May 27, 3:35 PM)93% (May 17, 6:35 PM)30.54 "Hg (May 17, 6:35 PM)
Low27 °F (May 15, 10:55 PM)34% (May 21, 11:55 AM)29.88 "Hg (May 16, 4:55 AM)
Average35 °F72%30.24 "Hg
* Reported May 15 1:15 AM — May 30 1:55 AM, Breckenridge, Weather by CustomWeather, © 2015

Note: Actual official high and low records may vary slightly from our data, if they occured in-between our weather recording intervals... More about our weather records

Advertising

Breckenridge weather history for previous 24 hours

 ConditionsComfort  
Time TempWeatherWind HumidityBarometerVisibility
1:55 AM
Sat, May 30
34 °FClear.5 mph75%30.52 "Hg10 mi
1:35 AM34 °FClear.10 mph75%30.52 "Hg10 mi
1:15 AM34 °FClear.8 mph75%30.52 "Hg10 mi
12:55 AM34 °FClear.10 mph70%30.52 "Hg10 mi
12:35 AM34 °FClear.6 mph70%30.53 "Hg10 mi
12:15 AM34 °FClear.9 mph65%30.53 "Hg10 mi
11:55 PM
Fri, May 29
34 °FClear.8 mph70%30.53 "Hg10 mi
11:35 PM34 °FClear.7 mph70%30.53 "Hg10 mi
11:15 PM34 °FClear.8 mph70%30.53 "Hg10 mi
10:55 PM34 °FClear.9 mph75%30.53 "Hg10 mi
10:35 PM34 °FClear.9 mph70%30.54 "Hg10 mi
10:15 PM34 °FThundershowers. Clear.6 mph70%30.53 "Hg10 mi
9:55 PM34 °FClear.7 mph75%30.53 "Hg10 mi
9:35 PM34 °FClear.7 mph75%30.52 "Hg10 mi
8:55 PM34 °FScattered clouds.8 mph81%30.51 "Hg10 mi
8:35 PM34 °FCloudy.9 mph81%30.52 "Hg10 mi
8:15 PM34 °FCloudy.17 mph87%30.51 "Hg7 mi
7:55 PM34 °FSnow. Low clouds.15 mph87%30.52 "Hg0 mi
7:35 PM34 °FSnow. Low clouds.18 mph87%30.52 "Hg0 mi
7:15 PM34 °FThundershowers. Low clouds.21 mph87%30.52 "Hg0 mi
6:55 PM34 °FHeavy snow. Low clouds.21 mph87%30.50 "Hg0 mi
6:35 PM36 °FLight snow. Cloudy.25 mph87%30.50 "Hg2 mi
6:15 PM37 °FThunderstorms. Mostly cloudy.13 mph75%30.49 "Hg7 mi
5:55 PM37 °FThunderstorms. Partly sunny.7 mph70%30.49 "Hg10 mi
5:35 PM37 °FThunderstorms. Partly sunny.10 mph81%30.48 "Hg10 mi
5:15 PM41 °FThundershowers. Overcast.12 mph61%30.49 "Hg10 mi
4:55 PM41 °FThundershowers. Partly sunny.12 mph49%30.48 "Hg10 mi
4:35 PM43 °FBroken clouds.13 mph46%30.48 "Hg10 mi
4:15 PM45 °FThundershowers. More clouds than sun.20 mph42%30.47 "Hg10 mi
3:55 PM45 °FThunderstorms. Cloudy.16 mph42%30.48 "Hg10 mi
3:35 PM45 °FThundershowers. Broken clouds.18 mph42%30.48 "Hg10 mi
3:15 PM45 °FMore clouds than sun.16 mph39%30.47 "Hg10 mi
2:35 PM43 °FBroken clouds.12 mph46%30.47 "Hg10 mi
2:15 PM41 °FMostly cloudy.13 mph45%30.48 "Hg10 mi
1:55 PM41 °FCloudy.9 mph57%30.48 "Hg10 mi
1:35 PM39 °FMore clouds than sun.18 mph52%30.47 "Hg10 mi
1:15 PM41 °FCloudy.9 mph53%30.48 "Hg10 mi
12:55 PM37 °FMostly cloudy.18 mph56%30.47 "Hg10 mi
12:35 PM37 °FMostly cloudy.16 mph65%30.47 "Hg10 mi
12:15 PM39 °FMore clouds than sun.10 mph56%30.47 "Hg10 mi
11:55 AM37 °FCloudy.14 mph65%30.46 "Hg10 mi
11:35 AM37 °FCloudy.15 mph65%30.46 "Hg10 mi
11:15 AM37 °FCloudy.16 mph70%30.46 "Hg10 mi
10:55 AM37 °FMostly cloudy.12 mph70%30.45 "Hg10 mi
10:35 AM36 °FCloudy.12 mph70%30.45 "Hg10 mi
10:15 AM34 °FCloudy.14 mph75%30.45 "Hg10 mi
9:55 AM34 °FCloudy.14 mph75%30.44 "Hg10 mi
9:35 AM34 °FMore clouds than sun.14 mph75%30.44 "Hg10 mi
9:15 AM34 °FCloudy.12 mph75%30.44 "Hg10 mi
8:55 AM34 °FMostly cloudy.5 mph81%30.43 "Hg10 mi
8:35 AM34 °FMostly cloudy.16 mph81%30.43 "Hg10 mi
8:15 AM34 °FMostly cloudy.13 mph81%30.42 "Hg10 mi
7:55 AM34 °FCloudy.16 mph81%30.41 "Hg10 mi
7:35 AM34 °FMostly cloudy.16 mph81%30.41 "Hg10 mi
7:15 AM34 °FMostly cloudy.15 mph81%30.41 "Hg10 mi
6:55 AM34 °FMore clouds than sun.15 mph81%30.40 "Hg10 mi
6:15 AM34 °FOvercast.20 mph81%30.38 "Hg10 mi
5:55 AM34 °FOvercast.16 mph81%30.38 "Hg10 mi
5:35 AM32 °FMostly cloudy.13 mph87%30.38 "Hg10 mi
5:15 AM34 °FMostly cloudy.6 mph75%30.38 "Hg10 mi
4:55 AM32 °FPassing clouds.7 mph75%30.38 "Hg10 mi
4:35 AM32 °FClear.10 mph80%30.38 "Hg10 mi
4:15 AM32 °FPassing clouds.9 mph80%30.38 "Hg10 mi
3:55 AM32 °FOvercast.7 mph87%30.38 "Hg10 mi
3:35 AM34 °FFog.14 mph87%30.39 "Hg1 mi
3:15 AM34 °FLow clouds.10 mph87%30.39 "Hg10 mi
Weather by CustomWeather, © 2015

See weather overviewHow to use our weather pages